| time (UTC) | temp F | wind direction | speed MPH | gust MPH | rain 1hr in | rain 24hr in | rain mn in | humidity % | barometer mb |
| 20260507235031 | 69 | 63 | 1.0 | 7.0 | 0.00 | 0.00 | 0.00 | 63 | 1013.6 |
| 20260507234039 | 69 | 50 | 2.0 | 7.0 | 0.00 | 0.00 | 0.00 | 61 | 1013.8 |
| 20260507233038 | 70 | 74 | 2.0 | 7.0 | 0.00 | 0.00 | 0.00 | 60 | 1013.7 |
| 20260507232012 | 70 | 46 | 1.0 | 8.0 | 0.00 | 0.00 | 0.00 | 62 | 1013.7 |
| 20260507230943 | 69 | 34 | 2.0 | 8.0 | 0.00 | 0.00 | 0.00 | 62 | 1013.7 |
| 20260507225909 | 69 | 88 | 1.0 | 7.0 | 0.00 | 0.00 | 0.00 | 62 | 1013.6 |
| 20260507224932 | 69 | 64 | 2.0 | 8.0 | 0.00 | 0.00 | 0.00 | 61 | 1013.9 |
| 20260507223903 | 69 | 5 | 3.0 | 10.0 | 0.00 | 0.00 | 0.00 | 62 | 1014.2 |
| 20260507222921 | 68 | 355 | 3.0 | 10.0 | 0.00 | 0.00 | 0.00 | 65 | 1014.2 |
| 20260507221927 | 68 | 355 | 2.0 | 8.0 | 0.00 | 0.00 | 0.00 | 64 | 1014.2 |
| 20260507220910 | 68 | 342 | 2.0 | 9.0 | 0.00 | 0.00 | 0.00 | 64 | 1014.4 |
| 20260507215922 | 68 | 42 | 3.0 | 10.0 | 0.00 | 0.00 | 0.00 | 63 | 1014.6 |
| 20260507214854 | 68 | 46 | 3.0 | 12.0 | 0.00 | 0.00 | 0.00 | 64 | 1014.4 |
| 20260507213850 | 68 | 339 | 3.0 | 10.0 | 0.00 | 0.00 | 0.00 | 62 | 1014.3 |
| 20260507212825 | 68 | 21 | 3.0 | 9.0 | 0.00 | 0.00 | 0.00 | 62 | 1014.3 |
| 20260507210627 | 68 | 61 | 4.0 | 11.0 | 0.00 | 0.00 | 0.00 | 62 | 1014.2 |
| 20260507204539 | 67 | 11 | 6.0 | 17.0 | 0.00 | 0.00 | 0.00 | 65 | 1014.0 |
| 20260507203525 | 67 | 319 | 6.0 | 14.0 | 0.00 | 0.00 | 0.00 | 62 | 1014.2 |
| 20260507202519 | 68 | 14 | 5.0 | 15.0 | 0.00 | 0.00 | 0.00 | 63 | 1014.4 |
| 20260507201459 | 69 | 34 | 6.0 | 15.0 | 0.00 | 0.00 | 0.00 | 60 | 1015.2 |
| 20260507200512 | 69 | 62 | 5.0 | 15.0 | 0.00 | 0.00 | 0.00 | 63 | 1014.9 |
| 20260507195443 | 69 | 78 | 6.0 | 14.0 | 0.00 | 0.00 | 0.00 | 65 | 1015.0 |
| 20260507194447 | 69 | 22 | 5.0 | 13.0 | 0.00 | 0.00 | 0.00 | 64 | 1015.0 |
| 20260507193413 | 69 | 46 | 4.0 | 12.0 | 0.00 | 0.00 | 0.00 | 66 | 1015.3 |
| 20260507192352 | 68 | 5 | 4.0 | 12.0 | 0.00 | 0.00 | 0.00 | 67 | 1015.3 |
| 20260507191358 | 66 | 20 | 2.0 | 9.0 | 0.00 | 0.00 | 0.00 | 72 | 1015.6 |
| 20260507190405 | 65 | 42 | 3.0 | 9.0 | 0.00 | 0.00 | 0.00 | 73 | 1015.6 |
| 20260507185358 | 65 | 119 | 3.0 | 9.0 | 0.00 | 0.00 | 0.00 | 73 | 1015.7 |
| 20260507184400 | 65 | 68 | 3.0 | 9.0 | 0.00 | 0.00 | 0.00 | 71 | 1015.6 |
| 20260507183356 | 65 | 21 | 3.0 | 9.0 | 0.00 | 0.00 | 0.00 | 74 | 1016.1 |
| 20260507182331 | 65 | 66 | 4.0 | 11.0 | 0.00 | 0.00 | 0.00 | 72 | 1016.0 |
| 20260507181258 | 65 | 36 | 4.0 | 10.0 | 0.00 | 0.00 | 0.00 | 73 | 1016.2 |
| 20260507180319 | 65 | 51 | 3.0 | 8.0 | 0.00 | 0.00 | 0.00 | 74 | 1016.0 |
| 20260507175307 | 64 | 26 | 3.0 | 11.0 | 0.00 | 0.00 | 0.00 | 77 | 1015.9 |
| 20260507174245 | 63 | 52 | 3.0 | 11.0 | 0.00 | 0.00 | 0.00 | 78 | 1015.9 |
| 20260507173227 | 62 | 45 | 3.0 | 15.0 | 0.00 | 0.00 | 0.00 | 79 | 1015.6 |
| 20260507172221 | 62 | 86 | 4.0 | 15.0 | 0.00 | 0.00 | 0.00 | 79 | 1015.7 |
| 20260507171218 | 61 | 69 | 3.0 | 13.0 | 0.00 | 0.00 | 0.00 | 82 | 1016.0 |
| 20260507170153 | 61 | 87 | 3.0 | 12.0 | 0.00 | 0.00 | 0.00 | 84 | 1016.1 |
| 20260507165206 | 61 | 55 | 4.0 | 11.0 | 0.00 | 0.00 | 0.00 | 84 | 1016.2 |
| 20260507161837 | 59 | 338 | 6.0 | 16.0 | 0.00 | 0.00 | 0.00 | 86 | 1016.3 |
| 20260507160849 | 59 | 13 | 5.0 | 16.0 | 0.00 | 0.00 | 0.00 | 87 | 1016.3 |
| 20260507155840 | 59 | 11 | 5.0 | 12.0 | 0.00 | 0.00 | 0.00 | 87 | 1016.9 |
| 20260507154830 | 59 | 0 | 3.0 | 9.0 | 0.00 | 0.00 | 0.00 | 87 | 1016.5 |
| 20260507153839 | 59 | 349 | 4.0 | 10.0 | 0.00 | 0.00 | 0.00 | 87 | 1016.6 |
| 20260507152809 | 59 | 18 | 3.0 | 13.0 | 0.00 | 0.00 | 0.00 | 88 | 1016.6 |
| 20260507145536 | 59 | 5 | 4.0 | 13.0 | 0.00 | 0.00 | 0.00 | 88 | 1016.3 |
| 20260507144533 | 58 | 332 | 4.0 | 13.0 | 0.00 | 0.00 | 0.00 | 88 | 1016.6 |
| 20260507143536 | 58 | 307 | 4.0 | 11.0 | 0.00 | 0.00 | 0.00 | 89 | 1016.6 |
| 20260507142553 | 58 | 36 | 3.0 | 10.0 | 0.00 | 0.00 | 0.00 | 89 | 1016.8 |
| 20260507141558 | 58 | 344 | 3.0 | 16.0 | 0.00 | 0.00 | 0.00 | 89 | 1017.1 |
| 20260507140623 | 58 | 31 | 5.0 | 16.0 | 0.00 | 0.00 | 0.00 | 89 | 1016.7 |
| 20260507135608 | 58 | 319 | 4.0 | 11.0 | 0.00 | 0.00 | 0.00 | 89 | 1016.3 |
| 20260507134624 | 58 | 355 | 3.0 | 9.0 | 0.00 | 0.00 | 0.00 | 90 | 1016.5 |
| 20260507133605 | 58 | 12 | 4.0 | 12.0 | 0.00 | 0.00 | 0.00 | 90 | 1016.3 |
| 20260507132618 | 58 | 11 | 5.0 | 12.0 | 0.00 | 0.00 | 0.00 | 90 | 1016.1 |
| 20260507131552 | 58 | 76 | 4.0 | 15.0 | 0.00 | 0.00 | 0.00 | 89 | 1015.6 |
| 20260507125442 | 58 | 342 | 3.0 | 14.0 | 0.00 | 0.00 | 0.00 | 89 | 1015.7 |
| 20260507124448 | 58 | 20 | 4.0 | 14.0 | 0.00 | 0.00 | 0.00 | 88 | 1015.9 |
| 20260507123457 | 58 | 0 | 3.0 | 14.0 | 0.00 | 0.00 | 0.00 | 89 | 1015.5 |
| 20260507122431 | 58 | 49 | 5.0 | 14.0 | 0.00 | 0.00 | 0.00 | 89 | 1015.3 |
| 20260507121406 | 58 | 5 | 4.0 | 12.0 | 0.00 | 0.00 | 0.00 | 89 | 1015.4 |
| 20260507120428 | 58 | 355 | 5.0 | 12.0 | 0.00 | 0.00 | 0.00 | 88 | 1015.1 |
| 20260507115428 | 58 | 19 | 4.0 | 16.0 | 0.00 | 0.00 | 0.00 | 88 | 1014.7 |
| 20260507111003 | 59 | 9 | 4.0 | 14.0 | 0.00 | 0.00 | 0.00 | 88 | 1014.5 |
| 20260507104842 | 59 | 35 | 6.0 | 13.0 | 0.00 | 0.00 | 0.00 | 87 | 1014.3 |
| 20260507103857 | 59 | 328 | 6.0 | 13.0 | 0.00 | 0.00 | 0.00 | 87 | 1014.2 |
| 20260507102853 | 59 | 346 | 3.0 | 11.0 | 0.00 | 0.00 | 0.00 | 87 | 1014.2 |
| 20260507101847 | 60 | 13 | 4.0 | 12.0 | 0.00 | 0.00 | 0.00 | 87 | 1014.3 |
| 20260507100827 | 60 | 5 | 4.0 | 12.0 | 0.00 | 0.00 | 0.00 | 86 | 1013.8 |
| 20260507095836 | 60 | 350 | 4.0 | 12.0 | 0.00 | 0.00 | 0.00 | 86 | 1013.9 |
| 20260507094811 | 60 | 5 | 3.0 | 10.0 | 0.00 | 0.00 | 0.00 | 86 | 1013.8 |
| 20260507093827 | 60 | 17 | 3.0 | 8.0 | 0.00 | 0.00 | 0.00 | 86 | 1013.7 |
| 20260507092820 | 60 | 10 | 2.0 | 12.0 | 0.00 | 0.00 | 0.00 | 86 | 1013.7 |
| 20260507091819 | 60 | 5 | 4.0 | 12.0 | 0.00 | 0.00 | 0.00 | 86 | 1013.7 |
| 20260507090803 | 60 | 5 | 1.0 | 7.0 | 0.00 | 0.00 | 0.00 | 86 | 1013.7 |
| 20260507085753 | 60 | 355 | 1.0 | 7.0 | 0.00 | 0.00 | 0.00 | 86 | 1013.5 |
| 20260507084758 | 60 | 329 | 1.0 | 4.0 | 0.00 | 0.00 | 0.00 | 86 | 1013.4 |
| 20260507083729 | 60 | 19 | 1.0 | 4.0 | 0.00 | 0.00 | 0.00 | 86 | 1013.5 |
| 20260507082702 | 60 | 12 | 0.0 | 3.0 | 0.00 | 0.00 | 0.00 | 86 | 1013.4 |
| 20260507081655 | 60 | 342 | 0.0 | 0.0 | 0.00 | 0.00 | 0.00 | 86 | 1013.5 |
| 20260507080701 | 60 | 32 | 0.0 | 6.0 | 0.00 | 0.00 | 0.00 | 86 | 1013.2 |
| 20260507075633 | 60 | 39 | 1.0 | 6.0 | 0.00 | 0.00 | 0.00 | 85 | 1013.1 |
| 20260507074607 | 60 | 16 | 1.0 | 5.0 | 0.00 | 0.00 | 0.00 | 85 | 1013.1 |
| 20260507073618 | 60 | 38 | 1.0 | 4.0 | 0.00 | 0.00 | 0.00 | 85 | 1012.9 |
| 20260507072631 | 60 | 59 | 1.0 | 4.0 | 0.00 | 0.00 | 0.00 | 85 | 1012.7 |
| 20260507071611 | 60 | 36 | 0.0 | 3.0 | 0.00 | 0.00 | 0.00 | 85 | 1013.1 |
| 20260507070541 | 60 | 43 | 1.0 | 7.0 | 0.00 | 0.00 | 0.00 | 85 | 1013.1 |
| 20260507064439 | 61 | 48 | 1.0 | 5.0 | 0.00 | 0.00 | 0.00 | 84 | 1013.1 |
| 20260507061206 | 61 | 28 | 2.0 | 10.0 | 0.00 | 0.00 | 0.00 | 85 | 1012.2 |
| 20260507060151 | 61 | 25 | 1.0 | 8.0 | 0.00 | 0.00 | 0.00 | 85 | 1013.0 |
| 20260507055208 | 61 | 17 | 2.0 | 8.0 | 0.00 | 0.00 | 0.00 | 84 | 1012.8 |
| 20260507054233 | 61 | 25 | 2.0 | 8.0 | 0.00 | 0.00 | 0.00 | 85 | 1012.6 |
| 20260507053223 | 61 | 342 | 2.0 | 7.0 | 0.00 | 0.00 | 0.00 | 84 | 1013.0 |
| 20260507052149 | 61 | 75 | 2.0 | 6.0 | 0.00 | 0.00 | 0.00 | 84 | 1012.9 |
| 20260507051157 | 61 | 62 | 3.0 | 9.0 | 0.00 | 0.00 | 0.00 | 84 | 1012.7 |
| 20260507050217 | 61 | 24 | 3.0 | 9.0 | 0.00 | 0.00 | 0.00 | 84 | 1012.5 |
| 20260507045209 | 61 | 15 | 2.0 | 8.0 | 0.00 | 0.00 | 0.00 | 84 | 1012.5 |
| 20260507044221 | 61 | 0 | 2.0 | 12.0 | 0.00 | 0.00 | 0.00 | 84 | 1012.7 |
| 20260507043210 | 62 | 329 | 3.0 | 12.0 | 0.00 | 0.00 | 0.00 | 84 | 1012.5 |
| 20260507042148 | 62 | 15 | 4.0 | 10.0 | 0.00 | 0.00 | 0.00 | 84 | 1012.7 |
| 20260507041141 | 62 | 19 | 3.0 | 10.0 | 0.00 | 0.00 | 0.00 | 84 | 1012.7 |
| 20260507040116 | 62 | 13 | 3.0 | 10.0 | 0.00 | 0.00 | 0.00 | 84 | 1012.2 |
| 20260507035116 | 62 | 355 | 4.0 | 12.0 | 0.00 | 0.00 | 0.00 | 84 | 1012.3 |
| 20260507034044 | 62 | 11 | 4.0 | 13.0 | 0.00 | 0.00 | 0.00 | 84 | 1012.6 |
| 20260507033028 | 62 | 15 | 3.0 | 13.0 | 0.00 | 0.00 | 0.00 | 84 | 1012.2 |
| 20260507032028 | 62 | 24 | 4.0 | 12.0 | 0.00 | 0.00 | 0.00 | 84 | 1012.3 |
| 20260507031000 | 62 | 341 | 4.0 | 11.0 | 0.00 | 0.00 | 0.00 | 85 | 1012.0 |
| 20260507022550 | 62 | 355 | 3.0 | 10.0 | 0.00 | 0.00 | 0.00 | 85 | 1011.9 |
| 20260507021609 | 62 | 327 | 3.0 | 9.0 | 0.00 | 0.00 | 0.00 | 85 | 1011.6 |
| 20260507013102 | 63 | 345 | 3.0 | 10.0 | 0.00 | 0.00 | 0.00 | 83 | 1010.6 |
| 20260507010952 | 63 | 344 | 3.0 | 9.0 | 0.00 | 0.00 | 0.00 | 83 | 1010.6 |
| 20260507005918 | 63 | 355 | 5.0 | 11.0 | 0.00 | 0.00 | 0.00 | 82 | 1010.3 |
| 20260507004927 | 63 | 355 | 4.0 | 11.0 | 0.00 | 0.00 | 0.00 | 82 | 1010.4 |
| 20260507003950 | 63 | 46 | 3.0 | 11.0 | 0.00 | 0.00 | 0.00 | 83 | 1010.2 |
| 20260507002941 | 63 | 48 | 5.0 | 11.0 | 0.00 | 0.00 | 0.00 | 82 | 1009.8 |
| 20260507001920 | 63 | 344 | 5.0 | 12.0 | 0.00 | 0.00 | 0.00 | 82 | 1010.0 |
| 20260507000859 | 63 | 57 | 5.0 | 13.0 | 0.00 | 0.00 | 0.00 | 82 | 1010.0 |
| 20260506235832 | 63 | 17 | 5.0 | 14.0 | 0.00 | 0.00 | 0.00 | 81 | 1009.6 |